Slayton, MN

4:42 PM CDT on September 21, 2017 (GMT -0500)
Slayton

Weather History for KDVP - February, 2013

Change the Weather History Date:

Monday, February 18, 2013

  Actual Average (KOTG) Record (KOTG)
Temperature  
Mean Temperature 18 °F -  
Max Temperature 33 °F 28 °F 64 °F (1981)
Min Temperature 2 °F 15 °F -19 °F (1993)
Degree Days  
Heating Degree Days 48    
Moisture  
Dew Point 16 °F    
Average Humidity 85    
Maximum Humidity 94    
Minimum Humidity 75    
Precipitation  
Precipitation 0.00 in - - ()
Sea Level Pressure  
Sea Level Pressure 29.73 in    
Wind  
Wind Speed 20 mph (WNW)    
Max Wind Speed 34 mph    
Max Gust Speed 40 mph    
Visibility 6 miles    
Events Snow    
Averages and records for this station are not official NWS values.
T = Trace of Precipitation, MM = Missing Value Source: NWS Daily Summary

Daily Weather History Graph

Daily Weather History Graph

Search for Another Location

Airport or City:

Trip Planner

Search our weather history database for the weather conditions in past years. The results will help you decide how hot, cold, wet, or windy it might be!

Date:

Astronomy

Feb. 18, 2013 Rise Set
Actual Time 7:17 AM CST 5:57 PM CST
Civil Twilight 6:47 AM CST 6:26 PM CST
Nautical Twilight 6:14 AM CST 7:00 PM CST
Astronomical Twilight 5:40 AM CST 7:33 PM CST
Moon 11:38 AM CST (2/18) 2:03 AM CST (2/18)
Length of Visible Light 11h 38m
Length of Day
10h 40m
First Quarter, 58% of the Moon is Illuminated
Feb 18
First Quarter
Feb 25
Full
Mar 4
Last Quarter
Mar 11
New
Mar 19
First Quarter

Hourly Weather History & Observations

Time (CST) Temp. Windchill Dew Point Humidity Pressure Visibility Wind Dir Wind Speed Gust Speed Precip Events Conditions
12:15 AM 33.8 °F 26.4 °F 30.9 °F 89% 29.53 in 10.0 mi WSW 9.2 mph - N/A   Clear
12:35 AM 33.1 °F 24.9 °F 30.7 °F 91% 29.54 in 10.0 mi SW 10.4 mph - N/A   Clear
12:55 AM 32.5 °F 25.5 °F 30.4 °F 92% 29.54 in 10.0 mi WSW 8.1 mph - N/A   Clear
1:15 AM 32.2 °F 26.7 °F 30.6 °F 94% 29.55 in 10.0 mi WSW 5.8 mph - N/A   Clear
1:34 AM 32.4 °F 26.9 °F 30.2 °F 92% 29.55 in 10.0 mi West 5.8 mph - N/A   Clear
1:55 AM 32.7 °F 25.7 °F 30.2 °F 90% 29.56 in 10.0 mi West 8.1 mph - N/A   Clear
2:15 AM 32.4 °F 22.1 °F 30.0 °F 91% 29.56 in 10.0 mi West 15.0 mph - N/A   Clear
2:35 AM 32.5 °F 22.3 °F 30.0 °F 90% 29.57 in 10.0 mi West 15.0 mph - N/A   Clear
2:55 AM 32.0 °F 22.5 °F 29.7 °F 91% 29.57 in 10.0 mi West 12.7 mph - N/A   Clear
3:15 AM 32.0 °F 22.5 °F 30.0 °F 92% 29.57 in 10.0 mi West 12.7 mph - N/A   Clear
3:35 AM 32.7 °F 22.5 °F 30.2 °F 90% 29.57 in 10.0 mi West 15.0 mph - N/A   Clear
3:55 AM 32.7 °F 23.4 °F 30.6 °F 92% 29.57 in 10.0 mi West 12.7 mph - N/A   Scattered Clouds
4:15 AM 32.4 °F 21.3 °F 30.6 °F 93% 29.55 in 10.0 mi West 17.3 mph - N/A   Mostly Cloudy
4:35 AM 32.4 °F 20.9 °F 30.2 °F 92% 29.55 in 10.0 mi WNW 18.4 mph - N/A   Scattered Clouds
4:55 AM 32.5 °F 20.5 °F 30.2 °F 91% 29.55 in 10.0 mi WNW 20.7 mph 25.3 mph N/A   Mostly Cloudy
5:14 AM 32.9 °F 19.8 °F 30.2 °F 90% 29.54 in 10.0 mi WNW 25.3 mph - N/A   Overcast
5:35 AM 32.9 °F 19.1 °F 30.4 °F 90% 29.53 in 10.0 mi WNW 28.8 mph 36.8 mph N/A   Overcast
6:15 AM 33.1 °F 19.1 °F 31.5 °F 94% 29.52 in 10.0 mi WNW 29.9 mph - N/A   Overcast
6:35 AM 33.3 °F 19.8 °F 31.6 °F 94% 29.54 in 10.0 mi WNW 27.6 mph 33.4 mph N/A   Overcast
6:55 AM 33.6 °F 20.1 °F 30.9 °F 90% 29.55 in 10.0 mi WNW 28.8 mph 38.0 mph N/A   Overcast
7:15 AM 33.3 °F 20.1 °F 30.4 °F 89% 29.56 in 10.0 mi WNW 26.5 mph 33.4 mph N/A   Overcast
7:35 AM 32.4 °F 17.7 °F 29.7 °F 90% 29.57 in 10.0 mi WNW 32.2 mph 38.0 mph N/A   Overcast
8:15 AM 29.3 °F 13.7 °F 24.3 °F 81% 29.61 in 10.0 mi NW 31.1 mph 40.3 mph N/A   Mostly Cloudy
8:35 AM 27.1 °F 13.4 °F 23.9 °F 88% 29.63 in 10.0 mi NW 20.7 mph - N/A   Mostly Cloudy
8:55 AM 25.3 °F 8.6 °F 21.6 °F 86% 29.65 in 10.0 mi NW 29.9 mph 38.0 mph N/A   Overcast
9:15 AM 23.7 °F 7.2 °F 19.0 °F 82% 29.67 in 10.0 mi NW 26.5 mph - N/A   Overcast
9:35 AM 23.0 °F 6.9 °F 19.0 °F 85% 29.67 in 10.0 mi NW 24.2 mph - N/A   Overcast
9:54 AM 22.6 °F 5.8 °F 18.9 °F 85% 29.67 in 10.0 mi NW 26.5 mph - N/A   Overcast
10:15 AM 22.3 °F 4.2 °F 18.1 °F 84% 29.69 in 10.0 mi NW 31.1 mph 36.8 mph N/A   Overcast
10:35 AM 21.9 °F 4.5 °F 17.8 °F 84% 29.70 in 10.0 mi NW 27.6 mph 33.4 mph N/A   Overcast
10:54 AM 21.2 °F 3.5 °F 16.9 °F 83% 29.71 in 7.0 mi NW 27.6 mph 33.4 mph N/A   Overcast
11:15 AM 20.3 °F 2.6 °F 15.6 °F 82% 29.72 in 7.0 mi NW 26.5 mph 32.2 mph N/A   Overcast
11:35 AM 20.5 °F 2.9 °F 15.8 °F 82% 29.72 in 10.0 mi NW 26.5 mph 32.2 mph N/A   Overcast
11:55 AM 19.0 °F 1.3 °F 13.3 °F 78% 29.73 in 10.0 mi NW 25.3 mph 35.7 mph N/A   Overcast
12:15 PM 18.5 °F 0.2 °F 13.6 °F 81% 29.74 in 4.0 mi NW 26.5 mph 32.2 mph N/A Snow Light Snow
12:35 PM 18.0 °F -1.4 °F 12.6 °F 79% 29.74 in 5.0 mi NW 29.9 mph - N/A Snow Light Snow
12:55 PM 17.4 °F -0.5 °F 11.8 °F 79% 29.75 in 5.0 mi NW 24.2 mph 33.4 mph N/A Snow Light Snow
1:15 PM 17.4 °F -2.2 °F 11.8 °F 79% 29.75 in 5.0 mi NW 29.9 mph 34.5 mph N/A Snow Light Snow
1:35 PM 17.2 °F -2.4 °F 11.3 °F 78% 29.76 in 5.0 mi NW 29.9 mph 34.5 mph N/A Snow Light Snow
1:55 PM 16.5 °F -2.8 °F 9.9 °F 75% 29.77 in 7.0 mi NW 27.6 mph 33.4 mph N/A   Overcast
2:15 PM 16.7 °F -2.5 °F 10.9 °F 78% 29.77 in 7.0 mi NW 27.6 mph - N/A   Overcast
2:35 PM 15.4 °F -4.2 °F 9.1 °F 76% 29.78 in 5.0 mi WNW 27.6 mph 36.8 mph N/A   Haze
2:55 PM 15.3 °F -4.8 °F 9.0 °F 76% 29.79 in 5.0 mi WNW 28.8 mph 33.4 mph N/A Snow Light Snow
3:15 PM 14.7 °F -4.9 °F 8.2 °F 75% 29.80 in 7.0 mi NW 26.5 mph 35.7 mph N/A Snow Light Snow
3:35 PM 14.0 °F -6.5 °F 7.5 °F 75% 29.80 in 7.0 mi NW 28.8 mph 39.1 mph N/A   Mostly Cloudy
3:55 PM 13.8 °F -6.7 °F 7.7 °F 77% 29.81 in 5.0 mi NW 28.8 mph 35.7 mph N/A Snow Light Snow
4:15 PM 12.9 °F -8.6 °F 7.5 °F 79% 29.82 in 3.0 mi NW 31.1 mph 39.1 mph N/A   Haze
4:35 PM 12.7 °F -8.2 °F 7.5 °F 80% 29.82 in 7.0 mi NW 28.8 mph 33.4 mph N/A   Overcast
4:55 PM 12.2 °F -8.9 °F 7.0 °F 80% 29.83 in 4.0 mi NW 28.8 mph 38.0 mph N/A Snow Light Snow
5:15 PM 11.3 °F -8.3 °F 7.5 °F 85% 29.84 in 1.2 mi NW 23.0 mph 34.5 mph N/A Snow Light Snow
5:34 PM 10.8 °F -11.2 °F 7.3 °F 86% 29.84 in 1.0 mi NW 29.9 mph 39.1 mph N/A   Overcast
6:15 PM 10.2 °F -10.9 °F 7.2 °F 87% 29.86 in 1.8 mi NW 26.5 mph 35.7 mph N/A Snow Light Snow
6:34 PM 9.5 °F -13.9 °F 6.6 °F 88% 29.87 in 0.8 mi NW 33.4 mph 39.1 mph N/A Snow Snow
6:55 PM 9.3 °F -11.3 °F 6.8 °F 89% 29.87 in 1.8 mi NW 24.2 mph 28.8 mph N/A Snow Light Snow
7:15 PM 9.5 °F -14.2 °F 7.0 °F 90% 29.87 in 0.8 mi WNW 34.5 mph 38.0 mph N/A Snow Light Snow
7:35 PM 8.6 °F -13.1 °F 5.9 °F 89% 29.88 in 0.8 mi WNW 26.5 mph 38.0 mph N/A Snow Light Snow
7:55 PM 8.2 °F -15.6 °F 5.7 °F 89% 29.88 in 0.8 mi NW 33.4 mph 38.0 mph N/A Snow Snow
8:15 PM 6.8 °F -16.6 °F 3.9 °F 88% 29.89 in 0.8 mi NW 29.9 mph 35.7 mph N/A Snow Light Snow
8:35 PM 5.7 °F -17.3 °F 2.3 °F 86% 29.89 in 1.0 mi NW 27.6 mph 34.5 mph N/A Snow Light Snow
8:55 PM 5.7 °F -17.7 °F 2.3 °F 86% 29.90 in 1.0 mi NW 28.8 mph 38.0 mph N/A Snow Light Snow
9:15 PM 5.0 °F -17.9 °F 1.2 °F 84% 29.91 in 1.8 mi NW 26.5 mph 34.5 mph N/A   Overcast
9:35 PM 5.0 °F -17.5 °F 1.4 °F 85% 29.91 in 1.5 mi NW 25.3 mph 35.7 mph N/A Snow Light Snow
9:55 PM 5.0 °F -19.4 °F 0.9 °F 83% 29.92 in 1.5 mi NW 31.1 mph 35.7 mph N/A   Overcast
10:15 PM 4.5 °F -19.8 °F 0.3 °F 83% 29.93 in 1.2 mi NNW 29.9 mph 36.8 mph N/A Snow Light Snow
10:35 PM 3.2 °F -18.6 °F -0.4 °F 85% 29.94 in 1.5 mi NW 21.9 mph 28.8 mph N/A   Overcast
10:55 PM 2.7 °F -18.8 °F -1.1 °F 84% 29.95 in 1.8 mi NNW 20.7 mph 31.1 mph N/A   Overcast
11:15 PM 2.3 °F -20.2 °F -1.3 °F 85% 29.95 in 2.0 mi NW 23.0 mph 29.9 mph N/A   Overcast
11:35 PM 2.1 °F -21.4 °F -2.2 °F 82% 29.96 in 3.0 mi NW 25.3 mph 31.1 mph N/A   Overcast
11:55 PM 2.1 °F -22.2 °F -2.0 °F 83% 29.96 in 2.5 mi NW 27.6 mph 32.2 mph N/A   Overcast